Date,TemperatureHighF,TemperatureAvgF,TemperatureLowF,DewpointHighF,DewpointAvgF,DewpointLowF,HumidityHigh,HumidityAvg,HumidityLow,PressureMaxIn,PressureMinIn,WindSpeedMaxMPH,WindSpeedAvgMPH,GustSpeedMaxMPH,PrecipitationSumIn
2013-1-1,50.9,47.9,43.2,50.6,42.8,29.6,99,84,51,29.99,29.83,7,2,0,0.23
2013-1-2,49.8,44.6,39.0,49.5,43.8,38.7,99,97,89,30.08,29.80,7,2,0,0.47
2013-1-3,47.3,39.4,28.2,39.3,36.9,28.0,99,91,65,30.15,30.03,5,1,0,0.00
2013-1-4,52.2,38.0,24.6,31.1,26.7,22.9,99,69,32,30.20,30.08,7,2,0,0.00
2013-1-5,52.2,37.5,24.6,31.6,25.9,21.9,90,65,36,30.29,30.17,4,1,0,0.00
2013-1-6,49.1,41.9,32.5,41.5,36.3,29.9,99,81,66,30.14,29.93,5,2,0,0.00
2013-1-7,53.1,38.3,27.1,37.9,32.3,26.9,99,81,49,30.34,30.06,8,2,0,0.00
2013-1-8,57.6,42.6,28.8,43.7,37.2,28.6,99,83,55,30.36,30.25,3,1,0,0.00
2013-1-9,68.9,50.0,34.3,54.3,45.1,34.0,99,85,56,30.33,30.23,4,1,0,0.00
2013-1-10,65.3,53.7,45.5,51.5,47.3,37.8,99,81,58,30.42,30.30,4,1,0,0.00
2013-1-11,53.8,48.5,42.3,52.7,44.2,34.2,99,87,59,30.33,30.04,4,1,0,0.39
2013-1-12,72.9,57.8,50.4,65.3,56.1,50.1,99,94,76,30.06,29.97,4,1,0,0.00
2013-1-13,75.6,64.4,51.4,65.3,60.0,51.1,99,87,66,30.02,29.92,7,3,0,0.00
2013-1-14,73.9,60.6,56.5,65.8,59.1,56.2,99,95,76,30.02,29.94,5,3,0,0.00
2013-1-15,48.7,46.9,45.7,47.9,46.5,45.4,99,99,95,30.06,29.94,3,2,0,0.00
2013-1-16,50.5,47.7,45.1,50.2,47.4,44.8,99,99,99,29.95,29.86,5,2,0,0.23
2013-1-17,51.6,47.0,33.4,51.3,46.7,33.1,99,99,99,30.03,29.76,11,4,0,1.15
2013-1-18,47.5,34.7,26.6,35.3,30.5,26.4,99,87,45,30.43,30.04,7,2,0,0.11
2013-1-19,54.5,35.3,23.4,37.4,28.8,23.2,99,81,38,30.41,30.06,7,1,0,0.00
2013-1-20,65.5,48.6,36.1,38.1,35.6,30.2,87,64,33,30.04,29.86,7,3,0,0.00
2013-1-21,59.9,44.1,28.8,36.7,29.6,20.4,99,62,30,29.97,29.75,7,2,0,0.00
2013-1-22,41.2,32.9,22.6,26.8,13.6,1.6,75,47,19,30.18,29.85,9,3,0,0.00
2013-1-23,40.6,26.1,15.3,20.2,14.6,8.7,91,65,29,30.26,29.96,7,1,0,0.00
2013-1-24,38.3,30.6,19.9,27.8,18.2,9.1,88,61,31,30.42,29.86,12,4,0,0.00
2013-1-25,27.7,23.5,16.3,26.5,16.3,5.7,98,75,41,30.45,30.01,3,1,0,0.01
2013-1-26,42.3,31.4,25.5,35.7,29.9,25.0,99,94,69,30.30,30.00,4,1,0,0.07
2013-1-27,42.6,31.9,26.2,31.1,28.4,26.0,99,88,61,30.50,30.29,4,1,0,0.03
2013-1-28,52.2,42.2,31.5,48.4,37.6,28.9,97,84,72,30.42,30.12,6,2,0,0.02
2013-1-29,74.1,58.8,47.3,60.8,53.3,45.9,99,83,58,30.13,29.94,10,4,0,0.00
2013-1-30,72.5,66.5,59.2,66.9,63.8,58.3,99,91,81,29.94,29.26,16,8,0,0.02
2013-1-31,61.5,47.1,33.3,59.5,32.1,20.4,95,59,31,29.91,29.34,14,6,0,0.41
2013-2-1,42.6,36.2,23.9,29.7,17.3,4.9,68,48,26,30.29,29.80,11,4,0,0.00
2013-2-2,44.6,31.8,16.2,37.5,16.6,9.7,90,57,28,30.31,29.93,9,3,0,0.00
2013-2-3,51.6,41.9,29.8,37.7,32.1,24.5,95,71,41,29.92,29.74,7,2,0,0.00
2013-2-4,49.1,36.6,22.5,29.3,24.6,22.0,99,67,36,30.04,29.88,5,2,0,0.00
2013-2-5,62.6,53.3,37.4,38.3,35.1,32.4,82,52,37,29.88,29.75,8,4,0,0.00
2013-2-6,64.9,52.1,37.2,40.0,32.7,27.4,99,51,25,30.16,29.99,7,3,0,0.00
2013-2-7,51.6,42.7,35.2,44.3,39.8,34.9,99,90,72,30.21,29.84,5,3,0,0.49
2013-2-8,57.0,46.3,40.8,47.8,42.4,30.3,99,87,66,29.94,29.66,15,5,0,0.77
2013-2-9,54.5,38.9,26.2,30.7,26.6,22.9,94,65,30,30.25,29.93,9,2,0,0.00
2013-2-10,55.4,39.6,24.1,42.6,25.9,22.1,99,64,29,30.38,30.10,8,1,0,0.02
2013-2-11,63.0,56.9,45.5,61.8,55.6,42.7,99,96,88,30.11,29.80,10,4,0,0.08
2013-2-12,63.0,53.4,45.1,54.8,40.9,27.2,99,67,26,29.96,29.77,6,2,0,0.00
2013-2-13,49.1,46.3,43.3,47.7,45.2,39.4,99,96,69,29.83,29.50,8,2,0,0.20
2013-2-14,51.8,41.7,30.0,38.8,34.4,29.8,99,78,52,29.96,29.72,5,1,0,0.00
2013-2-15,63.5,42.7,28.9,42.1,33.7,28.7,99,76,32,29.98,29.81,6,1,0,0.00
2013-2-16,45.3,37.1,31.6,39.0,34.5,29.0,99,91,74,29.84,29.69,7,4,0,0.45
2013-2-17,39.7,29.9,20.3,28.2,18.9,12.2,93,66,34,30.18,29.80,10,4,0,0.02
2013-2-18,20.8,18.2,16.3,18.8,16.9,15.1,98,94,89,30.29,30.18,3,0,0,0.00
2013-2-19,51.3,51.3,51.3,49.6,49.6,49.6,94,94,94,29.77,29.77,4,4,0,0.00
2013-2-20,55.4,54.6,53.8,19.2,18.0,16.9,24,24,23,29.90,29.89,5,4,0,0.00
2013-2-23,45.7,42.4,37.2,45.2,42.1,36.9,99,99,98,29.88,29.70,5,2,0,0.51
2013-2-24,64.2,50.0,38.5,50.2,40.6,30.4,99,74,31,29.91,29.67,7,2,0,0.02
2013-2-25,44.8,37.9,32.4,31.5,27.0,23.7,81,65,49,30.11,29.92,6,2,0,0.00
2013-2-26,59.4,47.7,35.6,59.1,45.9,28.1,99,94,70,30.02,29.42,7,3,0,1.68
2013-2-27,61.3,49.1,40.3,46.6,42.2,39.4,99,80,46,29.67,29.49,9,4,0,0.00
2013-2-28,50.5,42.2,31.6,40.4,33.2,26.7,99,73,42,29.73,29.57,8,2,0,0.00
2013-3-1,52.0,39.1,25.3,34.6,29.8,25.1,99,72,41,29.79,29.71,7,1,0,0.00
2013-3-2,51.4,38.5,24.8,32.8,27.8,21.7,99,68,43,29.81,29.68,6,2,0,0.00
2013-3-3,48.7,32.1,22.5,24.6,21.6,19.6,90,68,37,29.82,29.72,6,2,0,0.00
2013-3-4,52.0,37.0,24.1,24.7,20.5,15.6,82,56,24,30.00,29.90,8,2,0,0.00
2013-3-5,46.0,43.5,30.7,45.6,42.0,23.6,99,95,56,29.96,29.44,4,1,0,0.36
2013-3-6,48.0,42.6,37.8,47.7,36.4,28.3,99,80,54,29.89,29.38,9,5,0,0.02
2013-3-7,47.7,39.1,30.4,33.7,29.6,27.2,90,70,53,30.11,29.90,6,3,0,0.00
2013-3-8,55.9,41.5,29.7,31.4,27.8,25.2,83,60,34,30.17,30.04,9,4,0,0.00
2013-3-9,64.2,49.2,35.4,37.6,31.8,28.2,89,55,28,30.23,30.12,8,2,0,0.00
2013-3-10,68.7,49.0,29.8,35.2,28.1,20.1,99,55,17,30.22,30.09,6,1,0,0.00
2013-3-11,69.3,54.6,35.2,53.7,45.9,28.3,98,74,54,30.13,29.81,10,3,0,0.00
2013-3-12,74.3,62.0,51.4,64.4,56.1,36.2,99,83,53,29.82,29.60,9,4,0,0.46
2013-3-13,61.5,48.4,32.2,36.1,29.8,21.1,96,53,27,30.01,29.81,12,4,0,0.00
2013-3-14,55.2,39.4,27.0,25.3,20.8,17.5,69,49,27,30.13,30.00,8,3,0,0.00
2013-3-15,63.9,54.7,28.6,35.4,31.7,22.2,82,43,30,30.07,29.79,10,4,0,0.00
2013-3-16,80.2,63.2,49.1,50.4,43.7,35.3,67,51,34,29.78,29.53,10,5,0,0.00
2013-3-17,62.8,52.7,41.9,54.6,45.8,38.1,99,78,51,30.04,29.70,6,3,0,0.00
2013-3-18,46.4,41.6,38.3,44.5,41.0,38.0,99,98,92,30.07,29.82,8,2,0,0.19
2013-3-19,70.0,53.0,42.1,51.1,37.7,18.7,99,66,20,29.88,29.69,7,3,0,0.05
2013-3-20,57.0,47.9,35.6,27.8,16.9,12.2,71,30,20,30.00,29.67,8,3,0,0.00
2013-3-21,50.4,40.2,31.1,30.4,20.7,12.2,78,48,25,29.85,29.59,9,4,0,0.00
2013-3-22,54.9,38.2,19.8,26.8,16.9,13.4,80,46,22,29.97,29.85,8,3,0,0.00
2013-3-23,58.5,45.5,34.3,32.2,27.7,22.9,83,52,31,29.93,29.79,4,1,0,0.00
2013-3-24,41.2,38.2,31.8,40.0,36.6,29.1,99,94,78,29.82,29.44,10,2,0,0.60
2013-3-25,50.7,41.9,36.0,39.6,31.3,23.8,99,70,37,29.69,29.43,12,4,0,0.01
2013-3-26,52.3,42.6,33.1,31.8,28.0,24.4,74,57,43,29.99,29.69,7,3,0,0.00
2013-3-27,56.5,42.2,30.4,30.0,26.0,22.8,83,56,29,30.11,29.99,9,3,0,0.00
2013-3-28,59.4,42.9,28.6,31.2,26.5,23.1,80,56,29,30.18,30.02,8,2,0,0.00
2013-3-29,62.8,44.4,25.9,37.7,28.6,25.1,98,61,27,30.22,30.06,6,2,0,0.00
2013-3-30,68.4,53.0,40.1,44.2,38.5,29.8,86,61,29,30.13,29.96,4,1,0,0.00
2013-3-31,70.2,56.8,47.7,59.1,51.5,41.6,99,83,66,29.98,29.67,9,2,0,0.35
2013-4-1,75.4,62.3,54.9,57.1,49.1,40.3,99,69,30,29.80,29.66,14,3,0,0.11
2013-4-2,63.7,50.0,35.4,39.5,32.5,27.6,87,54,26,30.04,29.82,9,3,0,0.00
2013-4-3,63.7,50.1,42.3,37.4,29.3,19.9,78,48,22,30.18,30.01,6,2,0,0.00
2013-4-4,48.9,42.3,38.8,42.5,35.8,28.0,99,80,50,30.24,29.79,6,3,0,0.98
2013-4-5,64.8,48.1,39.6,51.3,44.4,39.3,99,89,56,29.88,29.74,6,3,0,0.03
2013-4-6,68.4,52.6,37.9,41.4,36.4,30.9,99,60,26,30.16,29.89,6,3,0,0.00
2013-4-7,73.4,53.4,33.1,46.8,39.9,32.8,99,65,35,30.18,29.98,8,2,0,0.00
2013-4-8,80.2,65.4,51.8,60.6,54.4,48.9,99,71,41,30.06,29.91,8,3,0,0.00
2013-4-9,86.7,71.6,56.8,63.6,59.2,55.4,99,69,41,30.06,29.90,8,3,0,0.00
2013-4-10,87.6,72.6,56.8,66.3,61.2,56.5,99,71,42,29.97,29.80,8,4,0,0.00
2013-4-11,83.7,72.1,61.2,69.3,63.1,58.3,99,76,47,29.86,29.66,8,4,0,0.01
2013-4-12,81.1,72.0,66.0,72.8,66.4,53.7,99,84,56,29.68,29.47,10,4,0,0.52
2013-4-13,79.5,63.8,48.7,53.6,46.0,42.1,89,56,28,29.85,29.60,5,2,0,0.00
2013-4-14,81.3,64.0,44.8,57.7,47.8,41.3,99,64,25,29.97,29.86,5,1,0,0.00
2013-4-15,75.0,66.1,59.4,61.5,58.5,51.0,97,77,59,30.06,29.87,6,2,0,0.00
2013-4-16,80.1,64.2,53.8,66.1,59.4,53.5,99,86,54,30.18,30.05,4,1,0,0.00
2013-4-17,84.4,69.3,54.7,68.6,62.8,54.4,99,82,57,30.10,29.96,5,2,0,0.00
2013-4-18,81.7,69.3,56.8,66.8,61.9,56.5,99,79,56,30.06,29.90,7,2,0,0.00
2013-4-19,82.9,71.7,65.1,72.2,67.9,63.4,99,89,66,29.90,29.58,11,5,0,0.66
2013-4-20,67.3,56.0,43.9,64.8,45.2,37.1,99,70,36,30.14,29.69,7,3,0,0.12
2013-4-21,66.9,51.0,39.7,45.7,42.5,39.4,99,76,42,30.37,30.14,6,2,0,0.00
2013-4-22,63.1,49.3,36.7,47.1,41.5,34.6,94,76,53,30.35,30.13,7,4,0,0.00
2013-4-23,72.7,56.0,47.1,54.9,49.7,45.8,99,81,51,30.14,29.99,6,3,0,0.00
2013-4-24,79.2,62.8,46.0,59.9,54.2,45.7,99,77,48,30.04,29.84,8,3,0,0.00
2013-4-25,75.0,62.1,50.9,58.7,51.6,44.5,99,71,41,30.14,29.87,6,2,0,0.00
2013-4-26,75.9,60.9,50.0,53.8,46.7,36.6,99,67,25,30.30,30.14,5,1,0,0.00
2013-4-27,76.1,62.9,50.7,52.4,47.3,44.0,85,60,34,30.26,30.12,4,1,0,0.00
2013-4-28,65.5,59.2,54.5,56.4,51.0,43.7,99,75,58,30.13,29.96,4,1,0,0.46
2013-4-29,78.6,64.2,55.2,67.2,61.6,54.9,99,92,67,29.97,29.81,3,1,0,1.57
2013-4-30,68.5,62.0,55.2,64.3,60.9,54.9,99,96,85,30.02,29.86,4,1,0,0.00
2013-5-1,62.8,59.3,57.4,61.3,58.7,57.1,99,98,93,30.18,30.01,6,3,0,0.00
2013-5-2,66.2,59.5,52.9,61.9,58.1,52.6,99,95,85,30.19,30.11,4,2,0,0.00
2013-5-3,72.9,58.7,49.1,60.4,52.2,44.3,99,81,56,30.13,30.02,5,2,0,0.00
2013-5-4,68.9,56.8,49.3,56.3,50.6,44.8,92,80,62,30.07,29.93,6,3,0,0.00
2013-5-5,63.7,56.4,50.2,59.1,53.2,47.7,94,89,82,29.96,29.84,5,3,0,0.00
2013-5-6,75.9,61.8,56.8,70.0,61.0,56.2,99,97,82,29.86,29.67,4,2,0,1.49
2013-5-7,74.5,59.5,48.9,60.4,53.3,48.6,99,83,42,29.81,29.71,6,1,0,0.00
2013-5-8,77.2,62.4,49.8,61.8,57.1,49.5,99,85,55,29.89,29.78,4,1,0,0.47
2013-5-9,84.6,67.1,52.5,64.8,58.7,52.2,99,79,42,29.93,29.83,7,1,0,0.00
2013-5-10,87.4,72.1,55.0,65.4,60.7,54.7,99,72,41,29.94,29.80,6,2,0,0.00
2013-5-11,85.1,74.0,67.1,67.3,63.5,58.9,94,71,49,29.83,29.65,9,3,0,0.00
2013-5-12,79.2,67.6,54.1,64.3,53.7,38.9,99,64,33,29.89,29.65,6,2,0,0.01
2013-5-13,71.2,58.4,47.5,45.8,39.6,34.1,83,53,26,30.05,29.89,5,1,0,0.00
2013-5-14,73.6,57.5,39.7,47.4,40.8,35.8,99,60,27,30.14,29.95,5,1,0,0.00
2013-5-15,91.0,70.7,54.9,62.8,55.2,43.5,79,60,39,29.95,29.74,5,3,0,0.00
2013-5-16,89.2,75.5,63.7,66.0,60.7,57.5,85,63,36,29.84,29.75,4,2,0,0.00
2013-5-17,92.8,76.5,61.9,67.8,62.6,59.0,97,66,37,29.95,29.83,4,1,0,0.00
2013-5-18,86.9,72.6,62.6,71.0,65.5,60.8,99,80,53,30.01,29.93,4,1,0,0.02
2013-5-19,80.8,70.7,66.2,72.5,68.1,65.9,99,92,69,30.02,29.92,7,1,0,0.81
2013-5-20,80.4,71.4,67.6,72.8,69.5,67.3,99,94,77,29.98,29.88,5,2,0,0.66
2013-5-21,84.9,74.2,68.5,75.3,70.3,67.1,99,89,70,29.91,29.81,5,2,0,0.01
2013-5-22,86.5,75.2,67.5,72.4,69.0,66.3,99,83,58,29.89,29.77,7,3,0,0.00
2013-5-23,85.6,72.3,67.8,72.9,69.4,64.7,99,91,63,29.82,29.68,4,2,0,2.14
2013-5-24,75.7,66.1,50.7,68.1,55.4,39.2,99,73,33,30.04,29.66,8,2,0,0.00
2013-5-25,81.7,59.1,42.4,51.1,42.8,37.5,99,61,24,30.15,30.00,6,1,0,0.00
2013-5-26,82.8,61.9,48.9,53.4,46.8,39.2,88,62,31,30.16,30.05,4,1,0,0.00
2013-5-27,86.7,67.0,49.6,56.7,50.9,47.4,97,63,30,30.16,30.02,4,1,0,0.00
2013-5-28,86.5,73.4,59.7,68.0,62.3,53.0,95,70,50,30.13,30.01,6,2,0,0.00
2013-5-29,89.1,74.7,60.6,67.5,63.9,59.7,99,72,46,30.12,30.02,6,2,0,0.00
2013-5-30,93.2,76.0,60.8,68.5,64.0,59.4,99,70,39,30.15,30.03,5,2,0,0.00
2013-5-31,94.5,78.1,64.2,70.9,66.8,63.0,99,71,40,30.10,29.96,5,2,0,0.00
2013-6-1,89.8,78.0,67.1,72.0,67.5,64.6,99,73,44,30.01,29.88,6,2,0,0.00
2013-6-2,90.1,77.9,67.5,69.7,66.7,63.9,96,70,45,29.94,29.74,6,3,0,0.00
2013-6-3,81.9,73.7,66.6,76.6,71.1,65.6,99,92,78,29.83,29.69,4,2,0,1.01
2013-6-4,88.5,72.5,64.0,69.0,65.0,61.1,99,80,44,29.96,29.79,3,0,0,0.01
2013-6-5,87.4,73.2,62.6,63.0,59.8,55.7,96,65,37,30.00,29.87,4,1,0,0.00
2013-6-6,79.7,71.5,65.8,72.8,64.6,57.3,99,80,62,29.90,29.70,5,1,0,0.20
2013-6-7,78.8,71.9,68.7,78.2,71.3,68.4,99,98,93,29.72,29.30,6,1,0,4.14
2013-6-8,90.3,75.6,68.0,74.3,70.5,67.7,99,86,56,29.96,29.68,7,1,0,0.30
2013-6-9,88.2,76.4,66.9,74.7,70.7,66.6,99,84,57,30.04,29.92,4,1,0,0.65
2013-6-10,85.5,75.4,70.9,76.3,72.7,70.0,99,92,69,29.98,29.78,6,3,0,1.80
2013-6-11,91.6,77.2,68.9,71.2,67.9,64.4,97,76,44,29.83,29.74,6,2,0,0.00
2013-6-12,95.9,79.0,65.1,73.9,68.9,62.8,97,74,48,29.85,29.73,7,1,0,0.00
2013-6-13,96.8,80.4,68.4,77.6,70.4,61.6,89,75,37,29.74,29.45,10,2,0,0.18
2013-6-14,85.8,72.4,60.8,65.7,58.9,56.0,89,66,38,29.87,29.58,4,1,0,0.00
2013-6-15,93.2,73.2,58.6,64.5,59.7,55.7,93,67,34,29.99,29.88,5,1,0,0.00
2013-6-16,88.7,76.2,62.4,68.0,62.2,55.0,78,63,48,30.01,29.86,7,2,0,0.00
2013-6-17,90.1,77.8,70.0,72.1,66.9,61.7,85,70,52,29.91,29.79,5,2,0,0.00
2013-6-18,86.7,75.3,69.4,72.6,69.7,66.6,98,84,63,29.83,29.61,4,2,0,1.51
2013-6-19,82.6,72.9,65.1,70.0,67.0,64.0,99,83,62,29.97,29.72,3,0,0,0.01
2013-6-20,88.7,73.0,63.5,65.3,62.2,54.3,99,72,42,30.11,29.98,4,1,0,0.00
2013-6-21,92.7,71.9,57.7,64.7,58.4,52.7,93,66,38,30.12,30.00,3,1,0,0.00
2013-6-22,81.5,73.4,69.1,71.4,68.8,64.8,95,86,70,30.07,29.96,3,1,0,0.03
2013-6-23,89.8,75.7,68.4,75.5,70.8,67.6,99,86,58,30.07,29.98,5,0,0,0.19
2013-6-24,85.3,76.9,70.9,75.0,72.3,69.9,99,87,69,30.07,29.95,5,2,0,0.05
2013-6-25,91.4,76.9,70.0,75.8,70.3,66.8,96,81,59,30.00,29.88,5,2,0,0.00
2013-6-26,91.6,76.9,69.1,75.7,71.0,65.1,99,84,58,29.91,29.77,6,2,0,0.13
2013-6-27,90.9,76.6,67.8,76.2,71.4,67.2,99,85,60,29.77,29.57,6,2,0,0.00
2013-6-28,93.6,79.6,71.1,76.1,72.2,66.7,99,81,50,29.62,29.43,6,2,0,0.80
2013-6-29,89.2,77.1,68.4,75.3,71.4,68.1,99,84,61,29.60,29.47,8,2,0,1.30
2013-6-30,86.9,77.1,70.9,76.0,71.7,68.9,99,84,67,29.74,29.57,5,2,0,0.66
2013-7-1,83.7,75.7,70.9,74.7,72.0,70.3,99,89,71,29.85,29.70,5,2,0,1.16
2013-7-2,79.2,73.8,70.9,74.6,72.4,69.3,99,95,85,30.06,29.85,5,2,0,1.37
2013-7-3,86.2,77.1,72.1,77.8,73.9,70.4,99,90,69,30.12,30.02,5,2,0,0.59
2013-7-4,91.8,80.2,72.3,76.2,72.4,67.5,99,80,49,30.14,30.05,5,2,0,0.02
2013-7-5,92.7,80.4,70.5,76.1,72.4,68.7,99,79,55,30.14,30.02,4,1,0,0.06
2013-7-6,90.1,78.5,71.4,75.4,71.9,66.9,99,82,54,30.12,29.98,3,1,0,0.00
2013-7-7,91.0,79.5,69.4,74.6,71.3,65.4,99,78,54,30.06,29.91,4,2,0,0.00
2013-7-8,84.4,77.0,71.8,74.4,71.3,68.6,98,83,70,30.03,29.95,5,2,0,0.24
2013-7-9,88.3,77.0,71.6,77.8,73.7,67.7,99,90,69,30.04,29.93,7,1,0,1.22
2013-7-10,88.3,78.1,73.6,77.6,74.5,70.8,99,89,68,29.97,29.81,5,2,0,0.09
2013-7-11,86.7,75.9,72.1,74.7,72.0,69.8,99,88,66,29.84,29.75,4,2,0,0.41
2013-7-12,78.3,73.2,70.5,74.7,72.0,70.2,99,96,87,29.88,29.72,3,0,0,1.81
2013-7-13,81.1,73.9,70.5,77.1,72.9,70.2,99,97,87,30.04,29.87,3,0,0,0.60
2013-7-14,90.9,77.7,69.4,76.9,72.8,69.1,99,86,58,30.16,30.05,4,1,0,0.20
2013-7-15,95.5,78.8,69.1,77.2,72.0,68.8,99,82,48,30.18,30.10,3,0,0,0.00
2013-7-16,99.5,81.2,69.3,75.8,71.6,65.4,99,76,43,30.15,30.03,3,0,0,0.00
2013-7-17,98.4,84.0,73.4,77.4,72.5,68.1,99,71,42,30.08,29.94,3,0,0,0.00
2013-7-18,96.1,84.0,74.3,77.4,73.5,70.1,97,73,44,30.00,29.89,4,1,0,0.00
2013-7-19,92.7,82.6,74.5,76.3,73.2,69.9,95,75,50,29.97,29.82,5,2,0,0.00
2013-7-20,91.0,81.0,75.2,74.8,71.5,69.2,84,74,55,29.91,29.75,6,3,0,0.00
2013-7-21,92.3,79.4,71.6,76.4,71.6,67.6,93,78,57,29.86,29.75,6,2,0,0.07
2013-7-22,90.1,78.1,71.2,77.6,73.0,70.0,99,85,62,29.82,29.70,5,1,0,0.13
2013-7-23,97.0,81.2,73.8,74.0,71.6,69.4,88,74,46,29.73,29.57,6,2,0,0.00
2013-7-24,97.2,80.8,71.6,75.4,70.3,66.4,98,73,42,29.69,29.58,3,1,0,0.08
2013-7-25,86.7,74.2,68.2,72.1,69.6,64.6,99,86,59,29.89,29.65,3,1,0,1.29
2013-7-26,91.0,74.3,62.8,67.3,64.3,62.0,99,74,43,29.96,29.87,3,0,0,0.00
2013-7-27,88.2,75.1,67.3,72.9,68.8,63.3,99,83,56,29.91,29.80,4,1,0,0.30
2013-7-28,90.5,78.3,70.5,75.1,72.2,70.2,99,83,54,29.85,29.76,4,1,0,0.08
2013-7-29,91.2,77.7,70.2,72.6,70.1,66.2,99,79,48,30.02,29.84,4,1,0,0.15
2013-7-30,90.9,76.0,64.6,71.4,66.2,61.9,93,74,47,30.08,29.98,3,0,0,0.00
2013-7-31,84.6,77.1,70.7,75.1,70.6,66.5,98,81,66,30.01,29.87,4,1,0,0.05
2013-8-1,84.9,75.9,70.7,74.2,71.1,68.0,99,86,69,29.88,29.72,5,1,0,0.07
2013-8-2,94.6,78.8,68.0,74.6,71.3,67.4,99,80,48,29.88,29.76,5,0,0,0.00
2013-8-3,92.7,79.2,71.2,78.3,74.3,70.2,99,86,62,29.88,29.75,5,2,0,0.60
2013-8-4,88.2,75.5,66.6,74.9,68.7,61.9,99,82,48,29.87,29.72,5,1,0,0.00
2013-8-5,87.3,74.2,63.9,66.6,63.8,59.7,98,73,44,29.95,29.86,4,0,0,0.00
2013-8-6,84.6,74.5,67.1,70.2,65.6,61.1,97,75,55,29.92,29.85,4,1,0,0.08
2013-8-7,88.5,77.1,66.9,71.4,68.4,64.8,98,77,47,29.96,29.87,4,1,0,0.00
2013-8-8,91.8,79.5,69.3,74.4,70.4,66.5,99,76,50,29.93,29.85,4,1,0,0.00
2013-8-9,93.0,81.9,73.8,76.8,73.9,70.9,99,79,54,29.92,29.84,5,2,0,0.00
2013-8-10,96.1,81.5,73.4,77.5,73.5,70.3,95,78,52,29.95,29.85,7,2,0,0.10
2013-8-11,96.4,81.0,71.2,76.6,73.3,70.9,99,80,51,29.97,29.85,3,1,0,0.00
2013-8-12,100.2,82.3,73.4,77.2,73.1,69.6,99,77,40,29.89,29.78,4,1,0,0.00
2013-8-13,94.5,80.2,73.4,77.1,74.0,69.3,99,83,53,29.81,29.62,7,2,0,0.32
2013-8-14,77.4,72.2,62.1,73.5,66.7,57.8,99,83,66,29.94,29.67,3,1,0,0.01
2013-8-15,79.9,66.9,60.3,61.0,57.9,56.0,89,74,49,30.02,29.92,4,1,0,0.00
2013-8-16,74.8,66.1,59.0,62.1,59.9,57.4,98,82,59,30.03,29.95,4,0,0,0.01
2013-8-17,75.0,68.9,63.9,72.5,66.7,61.3,99,93,88,30.02,29.95,3,1,0,0.30
2013-8-18,88.7,75.3,69.3,72.2,69.6,64.3,99,84,56,30.05,29.96,5,1,0,0.01
2013-8-19,75.7,70.3,67.1,72.9,68.7,63.7,99,95,84,30.04,29.95,1,0,0,1.03
2013-8-20,86.7,75.7,70.0,75.0,71.9,69.7,99,89,68,30.05,29.96,2,0,0,0.00
2013-8-21,90.0,76.4,70.3,77.3,72.4,67.9,99,88,64,30.09,29.96,5,1,0,0.01
2013-8-22,91.4,78.5,69.4,75.5,71.5,66.9,99,81,53,30.01,29.86,4,1,0,0.02
2013-8-23,90.7,77.9,69.8,73.8,70.6,66.8,99,80,53,29.91,29.78,5,1,0,0.00
2013-8-24,85.1,73.0,63.7,66.3,60.8,56.8,89,68,39,30.16,29.91,4,2,0,0.01
2013-8-25,81.9,69.1,59.4,64.7,59.1,54.1,99,74,41,30.25,30.14,4,1,0,0.00
2013-8-26,91.0,68.7,54.1,64.5,57.4,53.3,99,73,32,30.18,29.97,4,1,0,0.03
2013-8-27,89.4,74.0,60.1,70.9,64.8,56.7,94,75,52,29.98,29.82,4,1,0,0.00
2013-8-28,88.9,77.9,69.6,75.8,72.4,69.3,99,84,61,29.84,29.73,3,0,0,0.00
2013-8-29,91.4,80.2,70.7,75.0,71.6,66.5,98,76,54,29.87,29.69,4,2,0,0.00
2013-8-30,93.9,75.0,63.3,71.0,66.1,61.8,99,78,39,29.92,29.80,3,1,0,0.00
2013-8-31,90.5,76.3,64.9,74.4,69.2,64.6,99,81,52,29.84,29.72,4,1,0,0.00
2013-9-1,92.1,78.8,70.2,80.2,73.3,68.2,99,85,57,29.76,29.62,6,2,0,2.53
2013-9-2,91.0,78.1,70.3,77.0,72.9,70.0,99,86,55,29.74,29.64,4,1,0,0.01
2013-9-3,90.0,76.7,69.6,78.5,73.3,69.3,99,90,67,29.79,29.65,5,1,0,0.03
2013-9-4,95.0,76.5,68.0,74.8,70.3,67.7,99,83,47,29.95,29.79,3,1,0,0.00
2013-9-5,96.3,76.3,65.1,74.1,66.5,59.7,99,76,32,29.95,29.88,4,1,0,0.00
2013-9-6,86.2,73.0,63.9,66.7,62.3,59.4,95,72,43,30.03,29.93,3,2,0,0.00
2013-9-7,91.0,70.6,57.7,65.8,60.7,57.1,99,75,37,30.00,29.84,3,0,0,0.00
2013-9-8,89.6,70.4,62.8,68.1,63.3,59.2,98,82,37,29.86,29.76,4,0,0,0.00
2013-9-9,78.3,71.4,64.4,67.7,65.9,64.1,99,84,70,29.96,29.93,0,0,0,0.00
2013-9-10,94.1,80.9,64.6,73.8,67.3,64.3,99,67,40,30.11,30.02,4,1,0,0.00
2013-9-11,92.3,77.3,64.9,71.9,67.6,64.5,99,76,43,30.08,29.94,4,1,0,0.00
2013-9-12,91.6,82.9,69.4,70.7,69.3,66.7,96,66,48,29.88,29.67,6,3,0,0.01
2013-9-13,90.1,77.9,65.1,70.8,61.9,55.4,99,61,38,29.73,29.60,3,1,0,0.00
2013-9-14,82.9,67.9,57.6,56.8,50.7,46.9,80,56,34,29.99,29.73,4,2,0,0.00
2013-9-15,85.6,71.3,53.4,60.5,57.5,49.4,99,65,41,30.13,29.98,4,1,0,0.00
2013-9-16,87.1,72.8,65.7,73.3,64.7,59.1,99,78,46,30.03,29.91,4,2,0,0.51
2013-9-17,77.7,64.5,58.1,58.1,52.6,50.9,82,67,41,30.18,30.04,4,1,0,0.00
2013-9-18,77.4,60.0,51.3,54.0,52.0,50.5,97,78,40,30.17,30.03,2,0,0,0.00
2013-9-19,80.1,65.9,52.5,61.4,58.2,52.0,99,77,53,30.05,29.95,0,0,0,0.00
2013-9-20,70.3,66.6,63.1,67.2,64.0,57.5,97,92,82,29.96,29.83,3,0,0,0.25
2013-9-21,79.3,70.6,65.1,73.0,68.5,64.8,99,94,76,29.83,29.58,5,1,0,1.69
2013-9-22,81.0,68.7,62.8,67.7,63.6,59.4,99,86,48,29.65,29.55,5,2,0,3.78
2013-9-23,74.7,63.9,54.3,57.6,54.3,51.9,95,73,49,29.94,29.84,3,1,0,0.00
2013-9-24,81.9,60.5,52.0,60.8,55.3,51.2,99,85,46,29.97,29.81,3,0,0,0.00
2013-9-25,76.8,63.7,52.2,61.7,57.6,51.9,99,83,54,29.82,29.72,4,0,0,0.00
2013-9-26,78.3,66.2,57.2,63.2,57.8,53.0,99,77,44,29.89,29.72,4,1,0,0.00
2013-9-27,77.9,64.3,55.0,64.1,56.9,52.3,99,79,48,30.02,29.89,4,1,0,0.00
2013-9-28,75.9,60.7,53.8,58.4,54.5,51.5,99,83,49,30.11,30.01,3,1,0,0.00
2013-9-29,79.9,59.2,53.2,60.1,54.6,51.6,99,87,46,30.03,29.88,4,0,0,0.00
2013-9-30,83.1,63.1,52.9,62.7,55.6,49.6,99,81,36,29.96,29.85,2,0,0,0.00
2013-10-1,84.6,62.5,50.9,63.9,56.0,50.6,99,84,41,30.00,29.87,3,0,0,0.00
2013-10-2,85.1,62.3,56.5,67.9,59.8,56.2,99,93,43,29.99,29.91,1,0,0,0.00
2013-10-3,85.8,69.5,57.6,67.5,62.3,57.3,99,81,44,29.99,29.93,4,1,0,0.00
2013-10-4,87.1,75.6,60.6,70.6,64.3,60.3,99,72,41,30.00,29.91,4,1,0,0.00
2013-10-5,89.6,75.9,61.0,69.1,64.6,60.7,99,72,41,29.98,29.89,4,1,0,0.00
2013-10-6,86.0,75.3,62.4,73.7,70.1,62.1,99,85,67,29.94,29.80,6,2,0,0.00
2013-10-7,77.9,71.8,64.2,75.4,70.7,61.8,99,96,89,29.83,29.71,5,2,0,0.57
2013-10-8,64.4,58.9,55.9,62.0,53.5,48.7,93,83,69,30.05,29.81,5,3,0,0.02
2013-10-9,64.9,59.0,54.9,58.1,54.4,51.0,99,85,77,30.03,29.93,5,3,0,0.08
2013-10-10,60.3,57.1,53.8,59.8,56.7,53.5,99,99,96,29.92,29.78,5,2,0,0.15
2013-10-11,71.4,63.2,58.8,64.5,61.2,58.5,99,94,79,29.82,29.76,3,1,0,0.03
2013-10-12,73.2,65.4,59.2,66.5,63.3,58.6,99,93,79,29.92,29.80,3,0,0,0.00
2013-10-13,70.9,65.4,62.1,67.2,64.2,61.8,99,96,87,30.04,29.91,4,2,0,0.14
2013-10-14,67.8,63.2,57.2,66.3,62.5,56.9,99,97,93,30.09,30.02,4,2,0,0.01
2013-10-15,73.2,62.7,53.4,64.0,59.2,53.1,99,89,71,30.05,29.92,4,1,0,0.01
2013-10-16,74.1,66.3,60.1,67.0,62.9,59.2,99,90,70,29.92,29.82,2,0,0,0.00
2013-10-17,82.8,68.2,58.5,67.6,62.9,58.2,99,85,55,29.83,29.69,5,2,0,0.00
2013-10-18,74.1,64.7,58.1,64.6,55.4,49.1,99,74,42,29.90,29.73,4,1,0,0.00
2013-10-19,70.9,64.6,61.2,67.8,62.5,55.3,99,93,81,29.82,29.68,3,1,0,0.00
2013-10-20,78.4,58.0,45.0,60.9,47.7,39.8,99,75,26,29.99,29.77,4,1,0,0.00
2013-10-21,80.2,54.1,39.9,53.3,44.7,39.6,99,77,25,30.04,29.89,3,1,0,0.00
2013-10-22,66.4,56.5,50.5,59.7,54.4,48.6,99,93,79,29.89,29.69,3,0,0,0.00
2013-10-23,74.5,61.3,45.5,61.2,47.0,31.6,99,65,27,29.87,29.55,7,2,0,0.00
2013-10-24,67.8,49.9,34.5,39.0,33.3,28.5,84,58,24,30.06,29.88,6,2,0,0.00
2013-10-25,68.7,47.9,33.6,38.6,30.8,22.4,87,57,18,30.24,30.06,6,1,0,0.00
2013-10-26,65.5,43.8,28.6,36.2,30.5,26.6,93,67,24,30.24,29.96,5,1,0,0.00
2013-10-27,77.7,53.6,40.3,45.1,38.6,34.8,92,62,22,30.00,29.91,6,1,0,0.00
2013-10-28,70.2,54.5,42.1,53.3,48.6,41.8,99,83,49,30.14,30.00,3,0,0,0.00
2013-10-29,82.4,59.2,46.6,59.8,51.7,46.3,99,81,37,30.21,30.12,3,0,0,0.00
2013-10-30,75.6,61.2,51.6,61.6,55.5,51.3,99,84,50,30.18,30.03,5,1,0,0.00
2013-10-31,77.0,63.9,53.4,62.4,56.7,53.1,99,80,48,30.06,29.81,9,2,0,0.00
2013-11-1,75.0,68.8,64.0,67.4,64.0,61.8,99,85,66,29.81,29.55,7,4,0,1.30
2013-11-2,81.3,63.1,50.9,63.4,51.6,40.8,99,72,26,29.79,29.55,6,2,0,0.00
2013-11-3,71.4,51.7,40.1,42.0,36.9,33.3,82,61,26,30.25,29.79,5,1,0,0.00
2013-11-4,62.8,45.9,37.6,37.3,32.2,26.7,82,62,28,30.43,30.25,5,2,0,0.00
2013-11-5,63.9,49.3,39.0,47.1,40.1,32.0,81,71,50,30.42,30.30,5,2,0,0.00
2013-11-6,77.4,57.9,46.8,58.5,51.2,44.2,99,82,43,30.30,29.99,4,1,0,0.00
2013-11-7,73.4,60.9,46.0,65.5,55.7,34.1,99,84,57,29.98,29.77,6,2,0,0.14
2013-11-8,66.4,48.9,33.6,33.8,27.5,21.0,80,49,18,30.21,29.97,5,2,0,0.00
2013-11-9,63.5,45.4,30.9,36.2,30.2,24.2,92,60,23,30.26,30.07,5,1,0,0.00
2013-11-10,73.4,53.1,37.8,41.8,33.8,25.5,82,53,20,30.10,29.92,6,2,0,0.00
2013-11-11,61.3,44.1,31.1,37.3,28.6,24.9,98,59,26,30.24,30.03,4,1,0,0.00
2013-11-12,62.8,43.2,33.6,39.9,31.9,17.5,99,69,32,30.30,29.93,10,3,0,0.02
2013-11-13,47.5,34.0,24.3,20.7,16.7,12.2,83,52,25,30.42,30.30,7,2,0,0.00
2013-11-14,57.6,36.7,22.6,25.4,20.9,15.8,86,60,20,30.37,30.22,6,1,0,0.00
2013-11-15,66.7,45.7,26.8,46.4,34.8,22.6,89,69,34,30.25,30.09,4,1,0,0.00
2013-11-16,75.0,57.8,49.8,58.6,52.9,45.2,99,85,54,30.14,30.05,4,1,0,0.00
2013-11-17,73.2,63.1,53.4,66.4,59.7,53.1,99,90,67,30.08,29.76,5,1,0,0.20
2013-11-18,77.4,66.8,54.5,68.4,53.9,28.7,99,68,33,29.82,29.65,8,3,0,0.04
2013-11-19,58.8,48.5,38.3,31.2,26.6,23.5,68,44,27,30.19,29.82,9,3,0,0.00
2013-11-20,55.4,44.4,37.4,36.2,30.6,26.3,77,59,42,30.32,30.19,6,3,0,0.00
2013-11-21,65.7,50.9,41.2,48.5,41.5,34.7,84,71,53,30.37,30.25,5,2,0,0.00
2013-11-22,72.0,59.7,47.7,62.5,55.4,43.1,99,86,71,30.26,29.94,8,2,0,0.02
2013-11-23,61.5,55.7,42.6,61.2,45.2,19.8,99,71,38,30.03,29.89,6,2,0,0.02
2013-11-24,42.4,36.5,29.8,21.1,7.1,-1.5,43,30,18,30.35,30.04,10,6,0,0.00
2013-11-26,54.3,47.4,38.1,54.0,45.1,21.1,99,92,50,30.08,29.67,5,2,0,0.34
2013-11-27,32.4,28.0,28.6,26.3,13.9,-99.9,78,68,71,30.04,29.90,4,-69,0,1.68
2013-11-28,45.3,28.4,20.8,23.1,19.9,15.7,89,72,30,30.38,30.06,5,1,0,0.00
2013-11-29,52.3,37.8,24.3,24.2,22.9,20.2,93,59,28,30.52,30.37,4,1,0,0.00
2013-11-30,50.5,37.1,28.0,33.1,27.3,21.1,85,69,50,30.52,30.24,5,2,0,0.00
2013-12-1,60.4,44.3,30.4,38.7,34.7,28.0,99,73,37,30.24,29.89,6,1,0,0.00
2013-12-2,60.1,46.4,35.4,47.8,39.9,34.5,99,81,45,29.88,29.69,3,0,0,0.00
2013-12-3,57.9,45.5,31.5,46.9,40.7,31.3,99,85,62,29.88,29.75,4,1,0,0.00
2013-12-4,66.0,56.5,48.7,58.6,52.3,46.1,99,86,77,29.97,29.86,3,0,0,0.00
2013-12-5,66.9,60.2,48.2,65.1,59.6,47.9,99,98,94,30.02,29.92,6,2,0,0.04
2013-12-6,77.7,69.5,63.1,68.4,65.2,62.8,99,87,69,29.96,29.84,11,5,0,0.00
2013-12-7,68.2,50.4,42.3,65.5,47.3,35.0,99,89,75,30.33,29.86,11,5,0,0.31
2013-12-8,42.3,36.1,34.2,35.6,34.0,32.4,99,93,76,30.34,30.17,7,3,0,0.19
2013-12-9,46.6,40.9,34.5,46.3,40.6,34.2,99,99,99,30.17,29.94,4,1,0,0.12
2013-12-10,48.0,43.4,27.3,47.7,42.5,26.6,99,97,81,30.22,29.79,7,2,0,0.61
2013-12-11,48.2,30.9,22.5,28.6,24.7,21.4,99,81,36,30.32,30.18,4,0,0,0.00
2013-12-12,48.0,34.0,23.0,29.4,21.4,8.3,98,65,22,30.31,30.16,8,2,0,0.00
2013-12-13,52.2,35.0,21.0,29.5,20.5,14.2,91,62,24,30.29,30.16,7,1,0,0.00
2013-12-14,48.6,42.0,36.5,45.2,35.5,22.4,99,79,43,30.19,29.64,5,2,0,0.92
2013-12-15,56.1,43.3,31.3,47.8,37.7,24.3,99,83,46,29.96,29.58,6,2,0,0.04
2013-12-16,56.3,39.7,26.4,34.4,29.9,23.6,99,72,37,30.07,29.96,6,2,0,0.00
2013-12-17,62.6,46.9,30.0,38.3,34.2,29.3,99,65,33,30.01,29.77,9,3,0,0.00
2013-12-18,51.4,39.5,26.1,34.8,20.9,11.7,82,51,20,30.19,29.91,7,2,0,0.00
2013-12-19,62.1,42.8,25.5,30.7,23.3,17.2,94,53,18,30.22,30.11,9,3,0,0.00
2013-12-20,68.2,52.8,36.0,53.4,42.8,30.7,93,70,50,30.14,30.00,7,2,0,0.00
2013-12-21,72.5,60.9,47.8,65.4,57.6,42.2,99,89,76,30.04,29.92,9,3,0,0.00
2013-12-22,77.5,69.5,61.7,69.6,65.8,61.0,99,89,71,29.97,29.89,10,4,0,0.07
2013-12-23,69.3,61.5,48.2,69.0,61.2,47.9,99,99,97,30.01,29.85,8,4,0,1.47
2013-12-24,48.6,41.5,29.5,47.3,32.5,14.3,99,72,47,30.34,29.99,9,4,0,0.01
2013-12-25,41.4,29.6,23.7,19.3,12.9,6.7,78,52,25,30.44,30.29,6,2,0,0.00
2013-12-26,50.9,36.3,26.6,31.6,27.2,21.3,98,71,45,30.28,30.13,5,1,0,0.01
2013-12-27,53.8,37.2,27.0,26.6,22.8,17.3,91,60,25,30.35,30.24,4,2,0,0.00
2013-12-28,59.5,41.0,23.7,36.6,26.7,20.4,99,64,22,30.30,30.04,5,1,0,0.00
2013-12-29,64.8,51.1,43.2,64.5,49.7,36.5,99,95,67,30.03,29.54,11,3,0,1.94
2013-12-30,57.4,45.1,35.1,47.0,39.7,34.8,99,83,54,30.01,29.80,5,1,0,0.00
2013-12-31,51.4,42.1,30.6,36.6,29.4,20.9,85,63,30,30.24,29.98,9,2,0,0.00
2014-1-1,51.3,39.3,29.7,34.6,26.5,20.6,90,64,31,30.31,30.04,5,1,0,0.00
2014-1-2,47.5,45.2,39.9,47.2,42.8,32.0,99,92,68,30.03,29.44,5,1,0,0.34